Flag for Canada Weather past 2 weeks in Igloolik, Nunavut Territory, Canada

Now
-8 °F

Passing clouds.


Feels Like: -30 °F
Forecast: -20 / -7 °F
Wind: 16 mph from Northeast

Location: Hall Beach

Current Time: Dec 25, 2014 at 10:02:07 PM

Latest Report: Dec 25, 2014 at 9:00 PM


Visibility: 7 mi

Pressure: 30.16 "Hg

Humidity: 84%

Dew point: -11 °F

Location of IgloolikLocation

Historic Weather in Igloolik — Graph

°F

Igloolik temperature yesterday

Maximum temperature yesterday: -27 °F (at 6:00 PM)
Minimum temperature yesterday: -33 °F (at 6:00 AM)
Average temperature yesterday: -30 °F

Past Weeks' High & Low Weather Summary

 TemperatureHumidityPressure
High9 °F (Dec 10, 9:00 PM)92% (Dec 10, 9:00 PM)30.23 "Hg (Dec 10, 9:00 PM)
Low-33 °F (Dec 24, 6:00 AM)66% (Dec 24, 10:00 AM)29.36 "Hg (Dec 10, 9:00 PM)
Average-16 °F79%29.99 "Hg
* Reported Dec 10 9:00 PM — Dec 25 9:00 PM, Igloolik, Weather by CustomWeather, © 2014

Note: Actual official high and low records may vary slightly from our data, if they occured in-between our weather recording intervals... More about our weather records

Advertising

Igloolik weather history for previous 24 hours

 ConditionsComfort  
Time TempWeatherWind HumidityBarometerVisibility
9:00 PM
Dec 25
-8 °FPassing clouds.16 mph84%30.16 "Hg7 mi
8:00 PM-6 °FLight snow. Passing clouds.15 mph77%30.16 "Hg9 mi
7:00 PM-6 °FLight snow. Overcast.15 mph84%30.18 "Hg5 mi
6:00 PM-6 °FLight snow. More clouds than sun.16 mph84%30.17 "Hg6 mi
5:00 PM-6 °FLight snow. Mostly cloudy.15 mph84%30.18 "Hg6 mi
4:00 PM-4 °FLight snow. Overcast.13 mph84%30.17 "Hg10 mi
3:00 PM-4 °FLight snow. Overcast.12 mph84%30.17 "Hg10 mi
2:00 PM-4 °FLight snow. Overcast.13 mph84%30.17 "Hg6 mi
1:47 PM-4 °FLight snow. Overcast.12 mph84%30.17 "Hg9 mi
1:00 PM-6 °FLight snow. More clouds than sun.10 mph84%30.19 "Hg15 mi
12:00 PM-4 °FLight snow. Overcast.10 mph84%30.19 "Hg10 mi
11:00 AM-4 °FOvercast.9 mph84%30.21 "Hg15 mi
10:00 AM-9 °FOvercast.7 mph84%30.21 "Hg15 mi
9:00 AM-15 °FLight snow. Broken clouds.7 mph76%30.21 "Hg10 mi
8:00 AM-15 °FLight snow. Overcast.7 mph83%30.22 "Hg2 mi
7:00 AM-17 °FLight snow. Cloudy.8 mph76%30.21 "Hg5 mi
6:57 AM-17 °FLight snow. Cloudy.8 mph76%30.21 "Hg5 mi
6:00 AM-18 °FLight snow. Overcast.9 mph75%30.22 "Hg9 mi
5:00 AM-20 °FLight snow. Overcast.7 mph75%30.22 "Hg9 mi
4:00 AM-22 °FPassing clouds.8 mph75%30.22 "Hg9 mi
3:55 AM-22 °FPassing clouds.9 mph75%30.22 "Hg9 mi
3:00 AM-22 °FLight snow. Overcast.8 mph75%30.22 "Hg6 mi
2:00 AM-24 °FLight snow. Overcast.8 mph75%30.23 "Hg6 mi
1:52 AM-24 °FLight snow. Passing clouds.8 mph75%30.23 "Hg5 mi
1:01 AM-26 °FPartly cloudy.6 mph75%30.22 "Hg9 mi
12:00 AM-27 °FScattered clouds.7 mph74%30.22 "Hg9 mi
11:00 PM
Dec 24
-27 °FPassing clouds.9 mph74%30.22 "Hg9 mi
10:00 PM-27 °FPassing clouds.9 mph67%30.22 "Hg9 mi
Weather by CustomWeather, © 2014

See weather overviewHow to use our weather pages